When you browse on this site, cookies collect data to enhance your experience and personalize the content and advertising you see.
Visit our Privacy Policy to learn more. By continuing to use the site, you agree to this use of cookies and data.
  • In France
  • List of Countries
  • For 7 days
  • Water Temperature
  • Weather Map
  • Weather Widgets
  • user-avatar
    Login

    Hourly Weather Mansa

    Today, 10 December, Tuesday

    Time Temperature Precipitation Wind Pressure Humidity
    00:00 +19°C° 0.4 mm 2 mps 657 mmHg 97%
    01:00 +19°C° 0.4 mm 2 mps 657 mmHg 97%
    02:00 +20°C° 0 mm 1 mps 657 mmHg 97%
    03:00 +19°C° 0.2 mm 2 mps 657 mmHg 97%
    04:00 +19°C° 0.2 mm 2 mps 657 mmHg 97%
    05:00 +19°C° 0.2 mm 2 mps 657 mmHg 98%
    06:00 +19°C° 0.1 mm 2 mps 658 mmHg 97%
    07:00 +19°C° 0.1 mm 2 mps 658 mmHg 96%
    08:00 +21°C° 0.1 mm 1 mps 659 mmHg 95%
    09:00 +20°C° 0.3 mm 2 mps 659 mmHg 94%
    10:00 +21°C° 0.3 mm 2 mps 659 mmHg 93%
    11:00 +21°C° 0.3 mm 2 mps 659 mmHg 92%
    12:00 +23°C° 0.3 mm 2 mps 659 mmHg 86%
    13:00 +25°C° 0.3 mm 2 mps 658 mmHg 80%
    14:00 +26°C° 0.3 mm 1 mps 658 mmHg 74%
    15:00 +25°C° 0.5 mm 1 mps 657 mmHg 78%
    16:00 +25°C° 0.5 mm 1 mps 657 mmHg 83%
    17:00 +24°C° 0.5 mm 1 mps 656 mmHg 87%
    18:00 +23°C° 0.2 mm 1 mps 657 mmHg 90%
    19:00 +22°C° 0.2 mm 1 mps 657 mmHg 92%
    20:00 +21°C° 0.2 mm 1 mps 657 mmHg 95%
    21:00 +21°C° 0 mm 1 mps 658 mmHg 95%
    22:00 +21°C° 0 mm 1 mps 658 mmHg 95%
    23:00 +18°C° 0 mm 0 mps 658 mmHg 95%

    Tomorrow, 11 December, Wednesday

    Time Temperature Precipitation Wind Pressure Humidity
    00:00 +20°C° 0 mm 1 mps 658 mmHg 96%
    01:00 +20°C° 0 mm 1 mps 657 mmHg 96%
    02:00 +20°C° 0 mm 1 mps 657 mmHg 97%
    03:00 +20°C° 0 mm 1 mps 657 mmHg 97%
    04:00 +20°C° 0 mm 1 mps 657 mmHg 98%
    05:00 +20°C° 0 mm 1 mps 657 mmHg 98%
    06:00 +20°C° 0 mm 1 mps 658 mmHg 96%
    07:00 +21°C° 0 mm 1 mps 658 mmHg 95%
    08:00 +21°C° 0 mm 2 mps 659 mmHg 93%
    09:00 +23°C° 0.4 mm 2 mps 659 mmHg 89%
    10:00 +24°C° 0.4 mm 2 mps 658 mmHg 86%
    11:00 +25°C° 0.4 mm 2 mps 658 mmHg 82%
    12:00 +26°C° 0.6 mm 2 mps 658 mmHg 79%
    13:00 +27°C° 0.6 mm 2 mps 658 mmHg 75%
    14:00 +28°C° 0.6 mm 1 mps 657 mmHg 72%
    15:00 +26°C° 1.5 mm 1 mps 657 mmHg 78%
    16:00 +25°C° 1.5 mm 1 mps 657 mmHg 84%
    17:00 +24°C° 1.5 mm 2 mps 656 mmHg 90%
    18:00 +23°C° 2.2 mm 1 mps 657 mmHg 92%
    19:00 +22°C° 2.2 mm 1 mps 657 mmHg 94%
    20:00 +21°C° 2.2 mm 1 mps 658 mmHg 96%
    21:00 +21°C° 1.3 mm 1 mps 658 mmHg 97%
    22:00 +21°C° 1.3 mm 1 mps 658 mmHg 97%
    23:00 +21°C° 1.3 mm 1 mps 658 mmHg 97%

    Day after tomorrow, 12 December, Thursday

    Time Temperature Precipitation Wind Pressure Humidity
    00:00 +21°C° 1 mm 1 mps 658 mmHg 97%
    01:00 +21°C° 1 mm 1 mps 658 mmHg 98%
    02:00 +20°C° 1 mm 1 mps 658 mmHg 98%
    03:00 +20°C° 0.5 mm 1 mps 658 mmHg 98%
    04:00 +20°C° 0.5 mm 1 mps 658 mmHg 98%
    05:00 +20°C° 0.5 mm 1 mps 658 mmHg 99%
    06:00 +20°C° 0.3 mm 1 mps 658 mmHg 98%
    07:00 +21°C° 0.3 mm 1 mps 659 mmHg 97%
    08:00 +21°C° 0.3 mm 1 mps 659 mmHg 96%
    09:00 +21°C° 0.8 mm 2 mps 659 mmHg 94%
    10:00 +21°C° 0.8 mm 2 mps 659 mmHg 91%
    11:00 +22°C° 0.8 mm 3 mps 659 mmHg 89%
    12:00 +24°C° 0.3 mm 3 mps 658 mmHg 84%
    13:00 +25°C° 0.3 mm 3 mps 658 mmHg 80%
    14:00 +25°C° 0.3 mm 3 mps 657 mmHg 76%
    15:00 +25°C° 0.8 mm 2 mps 657 mmHg 81%
    16:00 +24°C° 0.8 mm 2 mps 657 mmHg 86%
    17:00 +23°C° 0.8 mm 1 mps 657 mmHg 90%
    18:00 +23°C° 0.9 mm 1 mps 657 mmHg 92%
    19:00 +22°C° 0.9 mm 1 mps 657 mmHg 94%
    20:00 +20°C° 0.9 mm 2 mps 658 mmHg 96%
    21:00 +21°C° 0.6 mm 1 mps 658 mmHg 96%
    22:00 +21°C° 0.6 mm 1 mps 658 mmHg 95%
    23:00 +19°C° 0.6 mm 0 mps 658 mmHg 94%

    13 December, Friday

    Time Temperature Precipitation Wind Pressure Humidity
    00:00 +18°C° 0.5 mm 0 mps 658 mmHg 94%
    01:00 +18°C° 0.5 mm 0 mps 658 mmHg 95%
    02:00 +20°C° 0.5 mm 1 mps 658 mmHg 95%
    03:00 +20°C° 0.3 mm 1 mps 658 mmHg 96%
    04:00 +20°C° 0.3 mm 1 mps 658 mmHg 97%
    05:00 +19°C° 0.3 mm 1 mps 658 mmHg 98%
    06:00 +20°C° 0.2 mm 1 mps 659 mmHg 97%
    07:00 +20°C° 0.2 mm 1 mps 659 mmHg 96%
    08:00 +21°C° 0.2 mm 1 mps 660 mmHg 95%
    09:00 +22°C° 0.7 mm 1 mps 660 mmHg 92%
    10:00 +23°C° 0.7 mm 1 mps 660 mmHg 89%
    11:00 +24°C° 0.7 mm 1 mps 660 mmHg 85%
    12:00 +26°C° 0.5 mm 1 mps 660 mmHg 80%
    13:00 +27°C° 0.5 mm 1 mps 659 mmHg 75%
    14:00 +27°C° 0.5 mm 0 mps 659 mmHg 70%
    15:00 +27°C° 0 mm 1 mps 658 mmHg 74%
    16:00 +26°C° 0 mm 1 mps 658 mmHg 79%
    17:00 +25°C° 0 mm 1 mps 657 mmHg 84%
    18:00 +24°C° 0.1 mm 1 mps 658 mmHg 86%
    19:00 +23°C° 0.1 mm 1 mps 658 mmHg 88%
    20:00 +22°C° 0.1 mm 1 mps 658 mmHg 90%
    21:00 +22°C° 0.2 mm 1 mps 658 mmHg 91%
    22:00 +21°C° 0.2 mm 1 mps 658 mmHg 92%
    23:00 +21°C° 0.2 mm 1 mps 659 mmHg 93%

    14 December, Saturday

    Time Temperature Precipitation Wind Pressure Humidity
    00:00 +21°C° 0.1 mm 1 mps 658 mmHg 93%
    01:00 +21°C° 0.1 mm 1 mps 658 mmHg 93%
    02:00 +19°C° 0.1 mm 0 mps 658 mmHg 92%
    03:00 +21°C° 0.5 mm 1 mps 658 mmHg 92%
    04:00 +20°C° 0.5 mm 1 mps 658 mmHg 92%
    05:00 +20°C° 0.5 mm 1 mps 658 mmHg 91%
    06:00 +21°C° 0.1 mm 1 mps 659 mmHg 91%
    07:00 +21°C° 0.1 mm 1 mps 659 mmHg 90%
    08:00 +22°C° 0.1 mm 1 mps 660 mmHg 90%
    09:00 +23°C° 0.1 mm 1 mps 660 mmHg 85%
    10:00 +24°C° 0.1 mm 1 mps 660 mmHg 80%
    11:00 +25°C° 0.1 mm 2 mps 660 mmHg 75%
    12:00 +26°C° 0.4 mm 2 mps 659 mmHg 74%
    13:00 +26°C° 0.4 mm 2 mps 659 mmHg 72%
    14:00 +27°C° 0.4 mm 1 mps 658 mmHg 71%
    15:00 +26°C° 0.4 mm 1 mps 658 mmHg 75%
    16:00 +26°C° 0.4 mm 1 mps 658 mmHg 79%
    17:00 +26°C° 0.4 mm 1 mps 657 mmHg 83%
    18:00 +24°C° 1.4 mm 1 mps 658 mmHg 85%
    19:00 +21°C° 1.4 mm 0 mps 658 mmHg 88%
    20:00 +20°C° 1.4 mm 0 mps 658 mmHg 90%
    21:00 +20°C° 0.4 mm 0 mps 658 mmHg 91%
    22:00 +19°C° 0.4 mm 0 mps 659 mmHg 91%
    23:00 +19°C° 0.4 mm 0 mps 659 mmHg 91%

    15 December, Sunday

    Time Temperature Precipitation Wind Pressure Humidity
    00:00 +21°C° 0.6 mm 1 mps 659 mmHg 92%
    01:00 +21°C° 0.6 mm 1 mps 658 mmHg 93%
    02:00 +20°C° 0.6 mm 1 mps 658 mmHg 94%
    03:00 +20°C° 0.4 mm 1 mps 658 mmHg 95%
    04:00 +20°C° 0.4 mm 1 mps 658 mmHg 96%
    05:00 +20°C° 0.4 mm 1 mps 658 mmHg 97%
    06:00 +20°C° 0.2 mm 1 mps 659 mmHg 96%
    07:00 +21°C° 0.2 mm 1 mps 659 mmHg 95%
    08:00 +21°C° 0.2 mm 1 mps 660 mmHg 93%
    09:00 +23°C° 0.8 mm 1 mps 660 mmHg 90%
    10:00 +24°C° 0.8 mm 1 mps 660 mmHg 87%
    11:00 +25°C° 0.8 mm 2 mps 660 mmHg 83%
    12:00 +26°C° 0.9 mm 1 mps 660 mmHg 79%
    13:00 +27°C° 0.9 mm 1 mps 659 mmHg 76%
    14:00 +27°C° 0.9 mm 1 mps 658 mmHg 72%
    15:00 +27°C° 1 mm 1 mps 658 mmHg 77%
    16:00 +26°C° 1 mm 1 mps 658 mmHg 82%
    17:00 +23°C° 1 mm 0 mps 657 mmHg 87%
    18:00 +24°C° 1.6 mm 1 mps 657 mmHg 90%
    19:00 +23°C° 1.6 mm 1 mps 658 mmHg 92%
    20:00 +20°C° 1.6 mm 2 mps 658 mmHg 95%
    21:00 +20°C° 0.1 mm 2 mps 658 mmHg 95%
    22:00 +20°C° 0.1 mm 2 mps 658 mmHg 95%
    23:00 +20°C° 0.1 mm 2 mps 658 mmHg 95%
    Show more